Regional Weather Roundup
Issued by NWS

Home | Current Version | Previous Version | Text Only | Print | Product List | Glossary Off
Versions: 1 2 3 4 5 6 7 8 9 10 11 12 13 14 15 16 17 18 19 20 21 22 23 24 25 26 27 28 29 30 31 32 33 34 35 36 37 38 39 40 41 42 43 44 45 46 47 48 49 50

300
ASUS44 KMEG 202100
RWRTN
TENNESSEE HOURLY STATE WEATHER ROUNDUP
NATIONAL WEATHER SERVICE MEMPHIS TN
400 PM CDT THU JUL 20 2017

TNZ002-004-019-021-049-052-054-088>092-202200-
WEST TENNESSEE

CITY           SKY/WX    TMP DP  RH WIND       PRES   REMARKS
MEMPHIS INTL   MOSUNNY   97  74  47 W9        30.05F HX 108
NWS MEMPHIS      N/A     94 N/A N/A MISG        N/A
JACKSON        MOSUNNY   95  73  48 NW7       30.06F HX 104
$$

TNZ008-025-027-028-033-062-065-066-202200-
NORTH MIDDLE TENNESSEE

CITY           SKY/WX    TMP DP  RH WIND       PRES   REMARKS
NASHVILLE      PTSUNNY   96  70  42 VRB5      30.07F HX 102
CLARKSVILLE    CLOUDY    91  71  51 W6        30.06F HX  97
SMYRNA         MOSUNNY   94  71  47 VRB6      30.07F HX 101
CROSSVILLE     PTSUNNY   87  69  54 N6        30.15F HX  91
$$

TNZ061-075-076-078-094-096-097-202200-
SOUTH MIDDLE TENNESSEE

CITY           SKY/WX    TMP DP  RH WIND       PRES   REMARKS
TULLAHOMA      SUNNY     90  68  48 N6        30.11F HX  93
WINCHESTER     SUNNY     91  70  49 VRB5      30.09F HX  97
MCMINNVILLE    MOSUNNY   91  75  59 N7        30.10F HX 102
$$

TNZ017-018-042-046-047-202200-
NORTHEAST TENNESSEE

CITY           SKY/WX    TMP DP  RH WIND       PRES   REMARKS
TRI CITIES     CLOUDY    91  65  41 W13       30.09F HX  93
$$

TNZ012-013-036-069-073-074-202200-
CENTRAL EAST TENNESSEE

CITY           SKY/WX    TMP DP  RH WIND       PRES   REMARKS
KNOXVILLE      PTSUNNY   90  66  45 N5        30.07F HX  92
OAK RIDGE      CLOUDY    92  68  45 VRB3      30.09F HX  96
GATLINBURG     MOSUNNY   91  64  40 N5        30.06F HX  93
$$

TNZ083-085-099-202200-
SOUTHEAST TENNESSEE

CITY           SKY/WX    TMP DP  RH WIND       PRES   REMARKS
CHATTANOOGA    PTSUNNY   92  70  48 NE9       30.06F HX  97
$$

SKY/WX REPORTED AS FAIR MEANS FEW OR NO CLOUDS BELOW
12 THOUSAND FEET.





USA.gov is the U.S. government's official web portal to all federal, state and local government web resources and services.